Location: Ar Fournig
(48.3333°N, 4.8833°W)
Time: 13:06:18
(UTC+00:00)

Daily predictions for brighter satellites

Satellite Brightness Start Highest point End
(mag) Time Altitude Azimuth Time Altitude Azimuth Time Altitude Azimuth
Cosmos 1452 Rocket 3.8 20:53:33 10° S 20:58:35 49° ESE 21:03:40 10° NNE
Cosmos 1833 Rocket 3.3 20:53:45 10° S 20:58:47 35° ESE 21:03:49 10° NE
Cosmos 724 4.3 20:52:59 10° SSW 20:58:48 87° SE 21:04:38 10° NE
Terra 3.1 20:57:24 10° ESE 21:01:25 28° ENE 21:05:27 10° N
CZ-4B R/B 0.9 20:59:18 10° NNE 21:02:11 69° ESE 21:05:03 10° S
Cosmos 1455 Rocket 4.3 21:00:04 10° NNW 21:04:09 41° W 21:08:12 10° SSW
Helios 1A Rocket 3.9 21:01:42 10° SE 21:05:24 34° ENE 21:09:07 10° N
ERS-1 Rocket 3.7 21:03:12 10° SE 21:07:54 40° ENE 21:12:35 10° N
Resurs 01 Rocket 2.3 21:03:53 10° S 21:08:14 55° W 21:12:38 10° NNW
Cosmos 2228 3.6 21:06:59 10° N 21:11:01 41° ENE 21:15:02 10° SSE
Meteor 2-5 Rocket 4.4 21:05:50 10° SSW 21:11:17 59° WNW 21:16:49 10° N
Cosmos 2184 Rocket 4.1 21:08:51 10° N 21:15:01 66° ENE 21:21:11 10° SSE
Lacrosse 5 3.4 21:12:24 10° WNW 21:16:43 28° SW 21:20:59 10° S
IRAS Rocket 4.3 21:13:53 10° NNE 21:19:30 73° ESE 21:25:02 10° S
Cosmos 1271 Rocket 3.8 21:19:38 10° NNW 21:23:26 44° W 21:27:09 10° SSW
USA 276 2.5 21:22:57 10° W 21:25:57 61° N 21:28:58 10° ENE
Cosmos 2360 4.3 21:24:42 10° NNW 21:30:29 77° ENE 21:35:50 12° SSE
Cosmos 1867 4.4 21:25:52 10° NNW 21:31:08 45° NE 21:36:21 10° ESE
H-2A R/B 3.5 21:27:06 10° N 21:31:18 42° WNW 21:35:31 10° SW
Cosmos 1455 3.6 21:28:53 10° NNW 21:32:26 37° W 21:35:57 10° SSW
Cosmos 2082 Rocket 3.2 21:27:54 10° SSE 21:32:40 28° ESE 21:37:27 10° NE
USA 245 3.3 21:30:32 10° S 21:34:39 71° WSW 21:37:57 10° NNW
Cosmos 1536 Rocket 3.6 21:30:48 10° SSW 21:35:08 81° W 21:39:31 10° N
USA 267 4.3 21:33:22 10° ENE 21:38:12 21° SE 21:42:59 10° S
CARTOSAT-1 4.2 21:34:42 10° S 21:38:55 53° W 21:43:10 10° NNW
ARIANE 5 R/B 3.3 21:35:43 13° SE 21:39:27 42° ENE 21:43:38 10° N
Cosmos 1606 Rocket 3.8 21:35:31 10° N 21:39:47 54° ENE 21:43:23 14° SSE
Meteor 1-21 Rocket 4.3 21:37:59 10° S 21:43:31 65° E 21:49:11 10° NNE
Cosmos 1741 Rocket 4.5 21:39:54 10° NNW 21:45:10 61° WSW 21:50:18 10° S
SPOT 3 Rocket 4.2 21:46:50 10° S 21:51:55 53° W 21:57:02 10° NNW
Ariane Rocket 4.4 21:48:35 10° SSW 21:53:11 34° W 21:57:49 10° NNW
Cosmos 2074 Rocket 4.4 21:51:26 10° NNW 21:57:37 62° W 22:03:44 10° S
Cosmos 1726 Rocket 3.5 21:58:12 10° N 22:02:31 72° E 22:05:41 18° SSE
Cosmos 1892 3.7 22:02:06 19° SE 22:03:57 29° E 22:07:15 10° NNE
Nadezhda 1 Rocket 4.0 22:04:10 10° S 22:10:15 85° W 22:16:22 10° N
Meteor 2-1 Rocket 4.3 22:07:30 10° NNW 22:13:00 72° W 22:17:41 15° S
USA 234 4.0 22:07:48 10° E 22:14:06 52° NNE 22:20:26 10° NW
SL-16 R/B 3.5 22:11:29 10° NNW 22:16:31 31° NE 22:21:23 11° ESE
Cosmos 1980 Rocket 2.2 22:11:04 10° NNW 22:16:49 89° ENE 22:20:52 20° SSE
Cosmos 1697 Rocket 3.3 22:11:30 10° NW 22:16:55 49° WSW 22:21:16 15° S
X-37B 1.7 22:15:53 10° WSW 22:18:08 22° SSW 22:18:13 22° SSW
Cosmos 1331 Rocket 4.5 22:14:01 10° SW 22:19:16 63° WNW 22:24:34 10° NNE
Cosmos 2369 3.8 22:14:40 10° NNW 22:20:26 78° WSW 22:24:30 20° SSE
Spot 2 Rocket 4.5 22:18:58 11° SSW 22:23:36 42° W 22:28:28 10° NNW
CZ-2C R/B 4.0 22:21:00 10° N 22:25:33 68° WNW 22:29:59 10° SSW
COSMOS 2406 3.3 22:20:48 10° SSW 22:26:35 87° WNW 22:32:23 10° NNE
ATLAS 5 CENTAUR R/B 2.0 22:29:22 27° SSE 22:30:19 31° ESE 22:33:55 10° ENE
SPOT 5 4.1 22:28:58 10° SSW 22:32:44 30° W 22:36:33 10° NW
Cosmos 1869 4.0 22:29:38 10° N 22:33:21 41° ENE 22:35:09 25° SE
In-Cosmos 22 Rocket 4.4 22:30:22 21° SSE 22:33:55 53° E 22:39:11 10° NNE
Cosmos 2084 Rocket 4.1 22:30:58 10° NW 22:34:37 38° SW 22:36:30 24° S
Terra 2.8 22:35:21 15° SSW 22:39:00 41° W 22:43:31 10° NNW
Meteor 1-27 4.3 22:33:38 10° N 22:39:10 64° ENE 22:42:35 24° SSE
FALCON 9 DEB 3.0 22:37:19 10° WNW 22:40:36 76° NNE 22:42:17 26° ESE
ALOS 2 4.2 22:39:48 15° ESE 22:42:21 25° ENE 22:45:55 10° N
Cosmos 1833 Rocket 3.9 22:37:15 10° SW 22:42:36 44° NW 22:47:59 10° NNE
ASTEX 1 3.4 22:37:35 10° N 22:42:37 80° E 22:45:49 23° S
Cosmos 1892 Rocket 3.9 22:41:21 16° SSW 22:44:51 64° WNW 22:49:12 10° N
BREEZE-M DEB (TANK) 3.3 22:44:01 10° W 22:46:44 79° N 22:55:36 10° E
ERS-1 Rocket 4.4 22:42:32 11° SSW 22:46:46 30° W 22:51:12 10° NNW
SL-8 Rocket 4.0 22:42:38 10° N 22:48:55 88° W 22:53:01 23° S
Cosmos 1302 Rocket 4.3 22:44:33 10° SSW 22:49:44 69° WNW 22:54:56 10° NNE
Cosmos 2058 Rocket 3.3 22:45:40 10° NNW 22:50:03 64° W 22:52:35 24° S
Cosmos 1825 2.3 22:49:40 34° SSE 22:51:02 57° E 22:54:44 10° NNE
ADEOS Rocket 4.2 22:45:43 17° SE 22:51:13 46° ENE 22:58:31 10° N
Cosmos 1408 2.8 22:50:12 23° SSW 22:52:07 59° WNW 22:55:32 10° N
Cosmos 2322 Rocket 3.2 22:46:49 10° NNW 22:52:10 40° NE 22:56:24 15° ESE
Cosmos 1503 Rocket 4.5 22:50:17 10° NNW 22:55:30 54° ENE 22:58:35 23° SE
Cosmos 1626 Rocket 3.6 22:54:43 31° SSE 22:56:38 60° E 23:00:57 10° NNE
USA 276 1.9 22:58:47 10° WNW 23:01:50 86° NNE 23:02:50 39° ESE
Cosmos 2278 3.8 22:57:25 10° NNW 23:03:08 69° WSW 23:06:17 27° S
Cosmos 968 Rocket 4.4 22:58:47 10° NW 23:03:36 39° WSW 23:06:36 21° SSW
Cosmos 2333 Rocket 4.0 23:02:20 10° N 23:07:05 25° NE 23:11:49 10° E
Cosmos 2366 rocket 4.1 23:01:40 10° NNW 23:08:01 77° W 23:12:00 24° S
SJ 16-02 2.2 23:05:53 10° N 23:10:08 43° ENE 23:12:19 24° ESE
Cosmos 2218 Rocket 4.2 23:05:12 10° NNW 23:11:36 73° W 23:15:36 24° S
Cosmos 1867 4.3 23:09:38 10° NW 23:14:42 39° WSW 23:17:08 25° SSW
ARIANE 5 R/B 4.4 23:13:15 13° SW 23:16:03 23° W 23:19:36 10° NW
Cosmos 2082 Rocket 2.9 23:10:51 10° SW 23:16:26 54° WNW 23:22:03 10° NNE
GP-B 3.9 23:14:08 10° N 23:18:21 45° W 23:21:00 21° SW
SAR-Lupe-4 4.5 23:15:38 10° N 23:19:04 44° WNW 23:21:03 22° SW
H-2A R/B 4.1 23:15:49 10° NNE 23:19:48 40° E 23:20:55 33° SE
USA 267 3.2 23:15:27 10° ENE 23:22:00 70° SE 23:28:31 10° SW
Cosmos 2221 4.5 23:22:48 10° NNE 23:26:05 20° ENE 23:28:17 15° ESE
Cosmos 1606 3.2 23:23:21 10° N 23:27:08 50° ENE 23:28:16 36° SE
Cosmos 2058 3.9 23:26:08 28° ESE 23:27:13 33° E 23:30:59 10° NNE
Cosmos 2360 Rocket 2.9 23:22:38 10° NNW 23:28:09 47° NE 23:32:00 19° ESE
Spot 4 3.8 23:27:39 34° S 23:29:45 80° WSW 23:34:35 10° NNW
Okean 1-7 Rocket 4.4 23:36:04 22° SW 23:38:40 45° WNW 23:43:01 10° N
Cosmos 44 4.4 23:41:21 24° ESE 23:41:32 24° ESE 23:45:10 10° ENE
Cosmos 2237 4.2 23:38:10 10° NNW 23:43:56 86° ENE 23:46:53 30° SSE
Meteor 2-20 Rocket 4.5 23:42:26 31° S 23:45:30 68° E 23:51:34 10° NNE
Cosmos 1633 2.8 23:45:56 42° SW 23:46:48 58° WNW 23:50:15 10° N
Cosmos 1758 Rocket 3.5 23:45:44 38° SSW 23:47:22 81° W 23:51:48 10° N
COSMOS 2428 4.4 23:49:02 10° NNW 23:53:56 28° NE 23:58:49 10° ESE
